Location: Newark
(45.4422°N, 16.2769°E)
Time: 05:16:23
(UTC+00:00)

Explorer 7 - Pass Details

Date: 27 January 2021
Orbit: 484 x 677 km, 50.3° (Epoch: 05 March)

Event Time Altitude Azimuth Distance (km) Brightness Sun altitude
Exits shadow 03:11:44 15° 64° (ENE) 1,440 9.6 -33.2°
Drops below altitude 10° 03:12:30 10° 65° (ENE) 1,748 10.1 -33.1°
Sets 03:14:46 0° 65° (ENE) 2,668 11.3 -32.7°
